Location: Chanteloup
(48.8560°N, 2.7390°E)
Time: 15:43:12
(UTC+00:00)

Okean-O - Pass Details

Date: 24 October 2021
Orbit: 638 x 640 km, 98.2° (Epoch: 27 November)

Event Time Altitude Azimuth Distance (km) Brightness Sun altitude
Exits shadow 18:02:48 20° 107° (ESE) 1,480 3.9 -13.9°
Maximum altitude 18:04:50 29° 65° (ENE) 1,183 3.5 -14.2°
Drops below altitude 10° 18:08:40 10° 6° (N) 2,044 5.1 -14.8°
Sets 18:11:05 0° 355° (N) 2,958 6.1 -15.2°
